This demonstration page uses our WeatherBlox Daily Observations layout. Learn more.

Left ArrowRight Arrow

38.88101, -77.10428

Hourly Observations for December 12, 2015

Temp ( °F °C ) Dew Point ( °F °C ) Humidity (%) Winds ( mph kmh ) Pressure ( in mb ) Visibility ( mi km ) Precip ( " mm )
12:52 am 00:52 Mostly Cloudy 49 9.4 46 7.8 90 90 N N/A 30.07 1018 7 11 N/A
1:52 am 01:52 Clear 49 9.4 47 8.3 93 93 N N/A 30.09 1019 7 11 N/A
2:52 am 02:52 Partly Cloudy 47 8.3 45 7.2 93 93 N N/A 30.10 1019 7 11 N/A
3:52 am 03:52 Mostly Cloudy 46 7.8 45 7.2 96 96 SW 3 6 30.10 1019 7 11 N/A
4:52 am 04:52 Mostly Cloudy 48 8.9 46 7.8 93 93 N N/A 30.11 1020 7 11 N/A
5:52 am 05:52 Mostly Cloudy 46 7.8 45 7.2 96 96 N N/A 30.13 1020 8 13 N/A
6:52 am 06:52 Partly Cloudy 46 7.8 45 7.2 96 96 SSE 3 6 30.14 1021 9 14 N/A
6:59 am 06:59 Partly Cloudy 46 7.8 44 6.7 93 93 N N/A 30.15 1021 10 16 N/A
7:52 am 07:52 Mostly Cloudy 46 7.8 45 7.2 96 96 S 3 6 30.14 1021 7 11 N/A
8:52 am 08:52 Mostly Cloudy 48 8.9 46 7.8 93 93 ESE 3 6 30.16 1022 7 11 N/A
9:52 am 09:52 Mostly Cloudy with Mist and Fog 53 11.7 51 10.6 93 93 N N/A 30.17 1022 6 10 N/A
10:52 am 10:52 Mostly Cloudy 57 13.9 51 10.6 81 81 S 7 11 30.16 1021 10 16 N/A
11:52 am 11:52 Mostly Cloudy 60 15.6 52 11.1 75 75 S 3 6 30.14 1021 10 16 N/A
12:52 pm 12:52 Mostly Cloudy 63 17.2 53 11.7 70 70 S 6 9 30.12 1020 10 16 N/A
1:52 pm 13:52 Mostly Cloudy 65 18.3 53 11.7 66 66 SSE 3 6 30.11 1020 10 16 N/A
2:52 pm 14:52 Mostly Cloudy 66 18.9 54 12.2 65 65 SSE 8 13 30.11 1020 10 16 N/A
3:52 pm 15:52 Mostly Cloudy 66 18.9 54 12.2 65 65 S 6 9 30.12 1020 10 16 N/A
4:52 pm 16:52 Mostly Cloudy 63 17.2 53 11.7 70 70 S 7 11 30.13 1020 10 16 N/A
5:52 pm 17:52 Mostly Cloudy 64 17.8 53 11.7 68 68 SW 3 6 30.15 1021 10 16 N/A
6:52 pm 18:52 Mostly Cloudy 60 15.6 53 11.7 78 78 S 3 6 30.16 1021 10 16 N/A
7:52 pm 19:52 Mostly Cloudy 56 13.3 52 11.1 87 87 S 3 6 30.16 1022 10 16 N/A
8:52 pm 20:52 Partly Cloudy 55 12.8 52 11.1 90 90 SSW 5 7 30.16 1022 10 16 N/A
9:52 pm 21:52 Mostly Cloudy 53 11.7 51 10.6 93 93 S 3 6 30.16 1021 9 14 N/A
10:52 pm 22:52 Partly Cloudy 53 11.7 51 10.6 93 93 S 6 9 30.16 1022 7 11 N/A
11:52 pm 23:52 Partly Cloudy with Mist and Fog 50 10 49 9.4 96 96 N N/A 30.17 1022 6 10 N/A

Powered by AerisWeather